PBO Station Position Time Series. Reference Frame : NAM14
Format Version,1.1.1
4-character ID,TXSO
Station name,Stanton
Begin Date, 2010-10-16
End Date, 2023-06-26
Release Date, 2023-06-27
Reference position, 32.1411717991 North Latitude, -101.8076105598 East Longitude, 801.53518 meters elevation,
Date, North (mm), East (mm), Vertical (mm), North Std. Deviation (mm), East Std. Deviation (mm),              Vertical Std. Deviation (mm), Quality,
2010-10-16,0.00, 0.00, 0.00, 1.83, 1.67, 7.35, repro,
2010-10-17,0.72, -0.44, -6.51, 1.93, 1.76, 7.68, repro,
2010-10-18,-1.30, 1.67, -3.38, 1.92, 1.76, 7.69, repro,
2010-10-19,1.45, 0.79, -1.77, 1.82, 1.67, 7.35, repro,
2010-10-20,0.42, 0.47, -6.72, 1.85, 1.71, 7.46, repro,
2010-10-21,0.46, 0.32, 1.47, 1.81, 1.63, 7.27, repro,
2010-10-22,-0.39, -1.02, -7.23, 1.86, 1.69, 7.47, repro,
2010-10-23,1.15, 0.78, 4.26, 1.86, 1.70, 7.49, repro,
2010-10-24,1.76, 0.46, -0.85, 1.82, 1.67, 7.29, repro,
2010-10-25,-0.00, -0.51, 6.22, 1.82, 1.66, 7.30, repro,
2010-10-26,-0.15, 0.00, 4.49, 1.79, 1.59, 7.13, repro,
2010-10-27,1.10, 1.28, 5.57, 1.80, 1.61, 7.17, repro,
2010-10-28,1.54, 1.23, -5.61, 1.79, 1.58, 7.09, repro,
2010-10-29,1.41, 0.42, -6.94, 1.80, 1.63, 7.24, repro,
2010-10-30,1.19, 0.54, -1.41, 1.78, 1.61, 7.12, repro,
2010-10-31,1.81, 1.15, -3.64, 1.90, 1.79, 7.70, repro,
2010-11-01,0.38, -0.24, -5.82, 1.87, 1.73, 7.54, repro,
2010-11-02,0.23, -0.71, -8.98, 1.81, 1.61, 7.19, repro,
2010-11-03,0.68, 2.78, -1.65, 1.85, 1.71, 7.51, repro,
2010-11-04,0.87, 1.03, -5.62, 1.79, 1.59, 7.11, repro,
2010-11-05,2.11, 0.94, -7.34, 1.81, 1.63, 7.26, repro,
2010-11-06,2.03, 1.38, -7.07, 1.84, 1.69, 7.40, repro,
2010-11-07,1.48, 0.99, -6.53, 1.82, 1.65, 7.22, repro,
2010-11-08,-0.28, 0.20, -3.44, 1.80, 1.59, 7.17, repro,
2010-11-09,1.52, 0.91, 0.75, 1.80, 1.60, 7.15, repro,
2010-11-10,1.31, 1.14, 2.73, 1.82, 1.62, 7.25, repro,
2010-11-11,1.62, 1.42, -4.53, 1.79, 1.60, 7.14, repro,
2010-11-12,1.34, 1.29, -8.27, 1.78, 1.58, 7.10, repro,
2010-11-13,1.73, 0.24, -6.02, 1.80, 1.59, 7.15, repro,
2010-11-14,1.20, 1.01, -1.56, 1.79, 1.59, 7.14, repro,
2010-11-15,1.45, 2.09, 1.17, 1.78, 1.59, 7.09, repro,
2010-11-16,2.25, 0.82, 7.89, 1.81, 1.62, 7.19, repro,
2010-11-17,0.34, 1.51, -1.38, 1.89, 1.69, 7.48, repro,
2010-11-18,1.36, 1.22, -8.17, 1.83, 1.61, 7.27, repro,
2010-11-19,0.35, 0.97, 1.60, 1.86, 1.61, 7.50, repro,
2010-11-20,1.13, 0.54, -5.39, 1.80, 1.60, 7.16, repro,
2010-11-21,2.68, 1.95, -3.87, 1.86, 1.64, 7.34, repro,
2010-11-22,2.03, -0.07, -2.97, 1.87, 1.66, 7.45, repro,
2010-11-23,2.69, 0.50, -3.85, 1.82, 1.62, 7.26, repro,
2010-11-24,1.82, 0.69, 0.94, 1.81, 1.59, 7.14, repro,
2010-11-25,1.74, 0.13, 4.65, 1.84, 1.63, 7.38, repro,
2010-11-26,2.73, 1.93, -6.13, 1.80, 1.59, 7.10, repro,
2010-11-27,1.46, 1.13, -7.76, 1.83, 1.59, 7.23, repro,
2010-11-28,0.15, 1.69, 0.18, 1.89, 1.63, 7.46, repro,
2010-11-29,1.73, 2.22, 4.40, 1.84, 1.60, 7.31, repro,
2010-11-30,1.95, 0.96, -8.14, 1.80, 1.60, 7.16, repro,
2010-12-01,1.46, 1.07, -7.52, 1.79, 1.59, 7.11, repro,
2010-12-02,2.05, 1.54, -9.68, 1.79, 1.57, 7.10, repro,
2010-12-03,2.00, 1.54, -12.28, 1.83, 1.59, 7.24, repro,
2010-12-04,1.43, 0.63, -7.40, 1.83, 1.60, 7.28, repro,
2010-12-05,2.81, 0.65, -8.85, 1.89, 1.65, 7.52, repro,
2010-12-06,2.41, 0.29, -11.59, 1.85, 1.63, 7.41, repro,
2010-12-07,1.93, -0.46, -11.20, 1.81, 1.62, 7.20, repro,
2010-12-08,1.85, 0.39, -19.32, 1.83, 1.59, 7.32, repro,
2010-12-09,2.71, 1.09, -7.79, 1.80, 1.59, 7.15, repro,
2010-12-10,1.84, -0.72, -7.20, 1.84, 1.62, 7.37, repro,
2010-12-11,1.72, 0.28, -5.73, 1.81, 1.60, 7.18, repro,
2010-12-12,1.21, 0.74, -9.21, 1.83, 1.61, 7.28, repro,
2010-12-13,0.80, -0.07, -8.84, 1.84, 1.60, 7.33, repro,
2010-12-14,1.51, 0.52, -1.20, 1.92, 1.65, 7.78, repro,
2010-12-15,2.06, 0.08, 1.99, 1.81, 1.62, 7.19, repro,
2010-12-16,2.46, 0.06, -2.34, 1.81, 1.62, 7.20, repro,
2010-12-17,1.66, 0.67, -9.81, 1.84, 1.61, 7.35, repro,
2010-12-18,1.19, 1.48, -10.08, 1.79, 1.59, 7.16, repro,
2010-12-19,1.61, 1.26, -4.14, 1.81, 1.64, 7.23, repro,
2010-12-20,2.69, -0.12, -5.57, 1.80, 1.63, 7.17, repro,
2010-12-21,2.79, 1.29, -1.72, 1.92, 1.71, 7.63, repro,
2010-12-22,1.87, 0.32, -8.40, 1.91, 1.70, 7.59, repro,
2010-12-23,1.96, 1.40, -9.16, 1.94, 1.72, 7.68, repro,
2010-12-24,-0.11, -0.11, -10.01, 1.82, 1.63, 7.22, repro,
2010-12-25,3.90, 0.81, -6.10, 1.78, 1.60, 7.09, repro,
2010-12-26,2.48, 1.94, -10.33, 1.81, 1.64, 7.21, repro,
2010-12-27,1.44, 0.45, -7.66, 1.81, 1.64, 7.17, repro,
2010-12-28,1.79, 2.40, -5.56, 1.84, 1.70, 7.43, repro,
2010-12-29,1.24, 1.53, -5.25, 1.87, 1.72, 7.49, repro,
2010-12-30,2.34, 1.76, 5.87, 1.86, 1.68, 7.39, repro,
2010-12-31,2.79, 1.54, 1.63, 1.83, 1.65, 7.22, repro,
2011-01-01,2.92, 0.78, -5.90, 1.82, 1.65, 7.21, repro,
2011-01-02,0.13, 0.42, -8.71, 1.94, 1.72, 7.70, repro,
2011-01-03,2.14, 1.18, -5.44, 1.87, 1.66, 7.29, repro,
2011-01-04,3.06, 1.69, -2.69, 1.87, 1.66, 7.46, repro,
2011-01-05,2.46, 0.87, -1.24, 1.85, 1.68, 7.35, repro,
2011-01-06,2.94, 2.10, -2.52, 1.82, 1.66, 7.27, repro,
2011-01-07,0.74, 0.57, -4.54, 1.82, 1.67, 7.38, repro,
2011-01-08,0.76, 0.61, -5.41, 1.85, 1.73, 7.48, repro,
2011-01-09,1.00, 2.03, 1.33, 1.80, 1.65, 7.26, repro,
2011-01-10,3.09, 2.14, -3.18, 1.85, 1.70, 7.34, repro,
2011-01-11,2.15, 1.99, -13.63, 1.86, 1.76, 7.52, repro,
2011-01-12,1.56, 2.36, -14.97, 1.79, 1.61, 7.14, repro,
2011-01-13,1.87, 2.49, -14.81, 1.82, 1.67, 7.31, repro,
2011-01-14,1.53, 1.47, -6.67, 1.81, 1.65, 7.22, repro,
2011-01-15,2.73, 1.67, -7.39, 1.81, 1.66, 7.27, repro,
2011-01-16,3.74, 1.57, -6.59, 1.78, 1.61, 7.12, repro,
2011-01-17,2.54, 1.47, -5.10, 1.78, 1.61, 7.18, repro,
2011-01-18,2.83, 2.48, -1.17, 1.86, 1.69, 7.42, repro,
2011-01-19,1.13, 1.76, -2.09, 1.85, 1.65, 7.27, repro,
2011-01-20,1.03, 1.62, -0.02, 1.79, 1.60, 7.09, repro,
2011-01-21,2.41, 1.83, -2.72, 1.83, 1.67, 7.30, repro,
2011-01-22,2.85, 1.32, -3.72, 1.84, 1.70, 7.44, repro,
2011-01-23,3.27, 2.86, 1.12, 1.84, 1.71, 7.48, repro,
2011-01-24,2.17, 1.15, -6.08, 1.85, 1.75, 7.55, repro,
2011-01-25,1.98, 2.34, -3.36, 1.85, 1.65, 7.34, repro,
2011-01-26,2.63, 1.81, -1.46, 1.99, 1.80, 7.86, repro,
2011-01-27,2.94, 2.31, -9.01, 1.89, 1.72, 7.77, repro,
2011-01-28,3.06, 1.99, -8.49, 1.80, 1.65, 7.30, repro,
2011-01-29,2.12, 1.30, -11.90, 1.82, 1.68, 7.39, repro,
2011-01-30,1.84, 2.09, -9.75, 1.81, 1.63, 7.21, repro,
2011-01-31,1.09, 2.50, -9.89, 1.87, 1.74, 7.56, repro,
2011-02-01,3.78, 1.24, -5.16, 1.97, 1.83, 8.09, repro,
2011-02-02,2.07, 1.53, -13.03, 1.81, 1.66, 7.28, repro,
2011-02-03,3.86, 1.97, -13.68, 1.82, 1.66, 7.29, repro,
2011-02-04,2.97, 1.07, -7.00, 1.88, 1.72, 7.50, repro,
2011-02-05,2.09, 2.63, -5.76, 2.01, 1.85, 8.25, repro,
2011-02-06,1.82, 1.45, -7.72, 2.04, 1.81, 8.20, repro,
2011-02-07,2.53, 1.81, -6.88, 1.84, 1.68, 7.39, repro,
2011-02-08,2.46, 2.35, -0.80, 1.83, 1.68, 7.36, repro,
2011-02-09,2.60, 2.65, -1.82, 1.83, 1.64, 7.26, repro,
2011-02-10,2.59, 2.37, -3.63, 1.82, 1.63, 7.23, repro,
2011-02-11,3.86, 1.45, -11.90, 1.86, 1.74, 7.58, repro,
2011-02-12,3.32, 2.26, -6.54, 1.87, 1.73, 7.62, repro,
2011-02-13,3.26, 1.62, -3.57, 1.83, 1.64, 7.30, repro,
2011-02-14,2.09, 1.89, -0.01, 1.87, 1.70, 7.51, repro,
2011-02-15,2.35, 2.03, -6.14, 1.92, 1.77, 7.77, repro,
2011-02-16,4.71, 1.90, -7.83, 2.02, 1.83, 8.32, repro,
2011-02-17,3.39, 2.60, 0.25, 1.85, 1.69, 7.41, repro,
2011-02-18,1.38, 3.01, 2.98, 1.85, 1.70, 7.45, repro,
2011-02-19,2.44, 2.57, -4.94, 1.83, 1.65, 7.35, repro,
2011-02-20,1.55, 1.80, -1.59, 1.83, 1.63, 7.30, repro,
2011-02-21,2.40, 2.61, -2.06, 1.87, 1.66, 7.38, repro,
2011-02-22,2.61, 3.86, -7.33, 1.83, 1.65, 7.32, repro,
2011-02-23,1.73, 1.66, -1.41, 1.87, 1.70, 7.51, repro,
2011-02-24,2.67, 1.39, 1.87, 1.80, 1.62, 7.15, repro,
2011-02-25,2.84, 1.51, -3.20, 1.80, 1.61, 7.18, repro,
2011-02-26,2.03, 2.05, -0.15, 1.79, 1.61, 7.18, repro,
2011-02-27,2.59, 1.13, 5.05, 1.78, 1.60, 7.13, repro,
2011-02-28,2.95, 2.56, -4.94, 1.79, 1.61, 7.17, repro,
2011-03-01,2.39, 1.72, -5.56, 1.80, 1.60, 7.17, repro,
2011-03-02,3.75, 1.54, -10.63, 1.87, 1.72, 7.62, repro,
2011-03-03,2.32, 2.05, -1.59, 1.80, 1.61, 7.18, repro,
2011-03-04,3.31, 2.10, -8.35, 1.76, 1.58, 7.04, repro,
2011-03-05,3.12, 1.87, -8.06, 1.80, 1.60, 7.16, repro,
2011-03-06,1.59, 3.95, -13.46, 1.80, 1.60, 7.19, repro,
2011-03-07,2.24, 2.54, -5.47, 1.81, 1.60, 7.17, repro,
2011-03-08,3.67, 0.19, -8.65, 1.82, 1.62, 7.27, repro,
2011-03-09,2.91, 1.29, -7.87, 1.77, 1.58, 7.03, repro,
2011-03-10,4.55, 1.13, -7.72, 1.85, 1.61, 7.42, repro,
2011-03-11,1.13, 1.85, -4.48, 1.82, 1.62, 7.15, repro,
2011-03-12,1.31, 1.32, -11.82, 1.81, 1.60, 7.16, repro,
2011-03-13,3.39, 0.21, -11.17, 1.88, 1.73, 7.53, repro,
2011-03-14,4.03, 1.49, -9.59, 1.82, 1.65, 7.22, repro,
2011-03-15,3.79, 2.82, -2.87, 1.81, 1.63, 7.19, repro,
2011-03-16,0.68, 1.37, 2.88, 1.83, 1.66, 7.30, repro,
2011-03-17,1.92, 2.28, -5.36, 1.90, 1.68, 7.60, repro,
2011-03-18,-0.63, 1.92, -9.65, 1.97, 1.71, 7.81, repro,
2011-03-19,1.69, 0.21, 7.55, 1.95, 1.71, 7.65, repro,
2011-03-20,1.77, 1.60, -9.17, 1.82, 1.65, 7.31, repro,
2011-03-21,2.30, 0.19, -3.73, 1.91, 1.71, 7.69, repro,
2011-03-22,2.72, 1.38, 7.34, 1.91, 1.72, 7.71, repro,
2011-03-23,2.18, 1.57, -6.27, 1.91, 1.68, 7.65, repro,
2011-03-24,2.13, 0.73, -4.14, 1.89, 1.64, 7.44, repro,
2011-03-25,1.76, 1.37, -0.27, 1.93, 1.70, 7.80, repro,
2011-03-26,2.88, -0.13, 1.86, 1.92, 1.69, 7.74, repro,
2011-03-27,3.17, 0.67, 1.47, 1.83, 1.61, 7.29, repro,
2011-03-28,1.84, 2.52, 2.16, 1.83, 1.64, 7.26, repro,
2011-03-29,1.03, 0.24, -4.56, 1.84, 1.65, 7.34, repro,
2011-03-30,1.27, 0.89, -5.72, 1.83, 1.66, 7.32, repro,
2011-03-31,2.46, 0.32, -7.25, 1.89, 1.73, 7.80, repro,
2011-04-01,3.15, -0.37, 1.89, 1.91, 1.67, 7.73, repro,
2011-04-02,1.55, 0.69, 4.99, 1.88, 1.70, 7.54, repro,
2011-04-03,1.77, 1.44, 7.53, 1.85, 1.65, 7.34, repro,
2011-04-04,2.27, 0.61, -0.17, 1.85, 1.66, 7.37, repro,
2011-04-05,1.37, 0.63, -2.78, 1.85, 1.70, 7.48, repro,
2011-04-06,2.16, 0.17, 4.84, 1.84, 1.66, 7.38, repro,
2011-04-07,2.51, -0.43, 2.09, 1.86, 1.70, 7.53, repro,
2011-04-08,1.32, 0.10, 3.18, 1.82, 1.61, 7.19, repro,
2011-04-09,2.42, 1.31, 6.27, 1.86, 1.67, 7.45, repro,
2011-04-10,2.23, -0.02, 5.61, 1.95, 1.81, 8.03, repro,
2011-04-11,5.25, -0.02, -11.23, 1.88, 1.69, 7.51, repro,
2011-04-12,2.33, 1.64, -4.11, 1.87, 1.73, 7.60, repro,
2011-04-13,0.90, 0.77, -4.09, 1.83, 1.66, 7.32, repro,
2011-04-14,2.42, 1.46, -0.06, 1.83, 1.67, 7.37, repro,
2011-04-15,6.05, -0.41, -2.15, 1.81, 1.65, 7.25, repro,
2011-04-16,2.36, 0.13, -5.58, 1.79, 1.59, 7.06, repro,
2011-04-17,1.51, -0.72, -1.58, 1.81, 1.61, 7.19, repro,
2011-04-18,0.69, 0.05, -1.35, 1.80, 1.59, 7.08, repro,
2011-04-19,2.92, 0.33, 1.46, 1.81, 1.61, 7.16, repro,
2011-04-20,3.83, 1.27, -4.02, 1.89, 1.66, 7.61, repro,
2011-04-21,3.44, -2.00, -7.12, 1.89, 1.65, 7.68, repro,
2011-04-22,2.79, -0.39, 3.93, 1.82, 1.62, 7.23, repro,
2011-04-23,1.05, 0.59, 4.36, 1.82, 1.63, 7.22, repro,
2011-04-24,2.38, 0.11, -1.51, 1.80, 1.61, 7.15, repro,
2011-04-25,0.82, 1.71, -2.35, 1.82, 1.63, 7.29, repro,
2011-04-26,2.31, 0.94, 6.13, 1.79, 1.60, 7.09, repro,
2011-04-27,2.19, -0.21, 0.37, 1.84, 1.63, 7.38, repro,
2011-04-28,2.42, 1.76, -8.08, 1.80, 1.59, 7.13, repro,
2011-04-29,2.33, 1.80, -2.20, 1.81, 1.61, 7.16, repro,
2011-04-30,1.37, 1.46, -1.19, 1.80, 1.60, 7.12, repro,
2011-05-01,1.89, 0.69, -3.03, 1.79, 1.60, 7.07, repro,
2011-05-02,2.59, 0.38, -3.24, 1.80, 1.61, 7.11, repro,
2011-05-03,2.40, 1.05, -8.44, 1.83, 1.63, 7.27, repro,
2011-05-04,2.58, 1.49, -12.48, 1.84, 1.70, 7.40, repro,
2011-05-05,2.30, 0.68, -8.22, 1.89, 1.67, 7.49, repro,
2011-05-06,2.85, 1.14, -1.21, 1.86, 1.62, 7.38, repro,
2011-05-07,2.13, -0.05, 4.28, 1.83, 1.67, 7.28, repro,
2011-05-08,1.13, 0.34, 3.41, 1.86, 1.68, 7.35, repro,
2011-05-09,2.64, 0.45, -1.36, 1.86, 1.70, 7.46, repro,
2011-05-10,2.98, 0.84, 4.17, 1.90, 1.73, 7.62, repro,
2011-05-11,2.16, 1.70, 3.68, 1.82, 1.64, 7.23, repro,
2011-05-12,1.15, 1.14, -6.47, 1.81, 1.63, 7.20, repro,
2011-05-13,2.13, 1.01, -1.27, 1.82, 1.62, 7.20, repro,
2011-05-14,3.92, 0.30, -1.35, 1.93, 1.72, 7.61, repro,
2011-05-15,3.70, 1.16, -5.63, 1.87, 1.68, 7.27, repro,
2011-05-16,3.33, 1.62, -4.17, 1.88, 1.69, 7.32, repro,
2011-05-17,2.25, 0.59, 0.36, 1.85, 1.65, 7.27, repro,
2011-05-18,3.16, 1.80, 0.34, 1.87, 1.71, 7.44, repro,
2011-05-19,2.19, 0.94, 1.32, 1.93, 1.72, 7.68, repro,
2011-05-20,4.81, -0.10, -8.40, 1.99, 1.79, 7.90, repro,
2011-05-21,2.03, 1.24, 0.36, 1.90, 1.71, 7.44, repro,
2011-05-22,2.62, 2.32, 4.10, 1.92, 1.71, 7.51, repro,
2011-05-23,1.81, 0.93, 3.41, 1.90, 1.73, 7.52, repro,
2011-05-24,1.56, -0.21, -4.70, 1.89, 1.73, 7.52, repro,
2011-05-25,1.00, 0.49, -0.57, 1.89, 1.69, 7.45, repro,
2011-05-26,2.93, 0.43, -6.13, 1.87, 1.69, 7.33, repro,
2011-05-27,2.10, 2.05, -0.04, 1.88, 1.70, 7.38, repro,
2011-05-28,1.83, 3.06, -0.51, 1.86, 1.69, 7.33, repro,
2011-05-29,2.45, 3.76, 3.10, 1.93, 1.77, 7.68, repro,
2011-05-30,3.27, 1.92, -9.35, 1.97, 1.78, 7.85, repro,
2011-05-31,3.35, -1.36, -0.34, 1.90, 1.71, 7.56, repro,
2011-06-01,2.03, 0.17, -9.05, 1.93, 1.73, 7.67, repro,
2011-06-02,1.76, 3.30, -2.11, 1.91, 1.73, 7.57, repro,
2011-06-03,2.11, 2.78, 6.44, 1.87, 1.66, 7.36, repro,
2011-06-04,1.95, 1.58, -1.92, 1.88, 1.66, 7.42, repro,
2011-06-05,2.76, 1.53, -4.59, 1.85, 1.63, 7.23, repro,
2011-06-06,2.49, 0.79, -6.79, 1.84, 1.65, 7.30, repro,
2011-06-07,2.32, 1.92, 0.58, 1.93, 1.76, 7.66, repro,
2011-06-08,2.60, 2.66, -3.45, 1.87, 1.68, 7.42, repro,
2011-06-09,2.29, -0.22, 3.09, 1.86, 1.65, 7.31, repro,
2011-06-10,1.57, 2.86, 1.05, 1.88, 1.67, 7.42, repro,
2011-06-11,2.40, 1.81, 6.21, 1.91, 1.75, 7.54, repro,
2011-06-12,4.67, 0.40, -2.05, 1.88, 1.68, 7.46, repro,
2011-06-13,2.35, 2.16, -4.88, 1.84, 1.63, 7.18, repro,
2011-06-14,3.61, 0.98, -0.39, 1.85, 1.69, 7.32, repro,
2011-06-15,5.28, 1.83, 7.46, 1.91, 1.73, 7.60, repro,
2011-06-16,4.54, 1.45, 4.47, 1.88, 1.66, 7.38, repro,
2011-06-17,2.83, -0.65, 9.17, 1.89, 1.73, 7.49, repro,
2011-06-18,6.16, -1.25, 4.69, 1.94, 1.78, 7.72, repro,
2011-06-19,2.18, 1.58, 8.48, 1.87, 1.68, 7.37, repro,
2011-06-20,1.87, 2.13, 15.83, 1.88, 1.68, 7.50, repro,
2011-06-21,3.15, 1.80, 3.28, 1.90, 1.70, 7.56, repro,
2011-06-22,2.57, 1.17, -5.24, 1.89, 1.71, 7.51, repro,
2011-06-23,3.79, 0.49, -2.38, 1.89, 1.69, 7.48, repro,
2011-06-24,3.95, 0.08, -0.69, 1.89, 1.71, 7.48, repro,
2011-06-25,1.94, 0.56, 2.31, 1.90, 1.73, 7.60, repro,
2011-06-26,4.42, 1.81, 5.37, 1.88, 1.71, 7.47, repro,
2011-06-27,3.97, -0.86, -11.01, 1.94, 1.73, 7.66, repro,
2011-06-28,4.64, 1.54, 4.36, 1.91, 1.68, 7.48, repro,
2011-06-29,4.17, 2.24, -7.89, 1.92, 1.68, 7.59, repro,
2011-06-30,3.03, 0.33, 4.29, 1.89, 1.70, 7.44, repro,
2011-07-01,3.25, 0.60, -5.40, 1.86, 1.69, 7.37, repro,
2011-07-02,4.46, -1.58, -2.55, 1.88, 1.68, 7.42, repro,
2011-07-03,4.99, 1.74, 0.88, 1.91, 1.70, 7.50, repro,
2011-07-04,3.04, 3.12, 5.43, 1.89, 1.67, 7.42, repro,
2011-07-05,4.67, -0.74, -0.86, 1.89, 1.69, 7.47, repro,
2011-07-06,3.20, 1.09, -1.62, 1.91, 1.69, 7.50, repro,
2011-07-07,3.85, 2.23, -3.88, 1.87, 1.66, 7.29, repro,
2011-07-08,4.50, 0.15, -1.72, 1.86, 1.65, 7.25, repro,
2011-07-09,3.25, 1.30, -3.83, 1.86, 1.68, 7.28, repro,
2011-07-10,4.09, 1.38, -1.57, 1.88, 1.66, 7.35, repro,
2011-07-11,4.35, 1.85, -7.15, 1.92, 1.70, 7.56, repro,
2011-07-12,2.57, 1.28, 9.28, 1.94, 1.77, 7.65, repro,
2011-07-13,5.60, 1.84, 2.57, 1.86, 1.64, 7.22, repro,
2011-07-14,5.26, 1.81, -6.44, 1.86, 1.65, 7.21, repro,
2011-07-15,4.16, 1.51, -8.93, 1.86, 1.65, 7.26, repro,
2011-07-16,5.09, 1.74, -9.37, 1.88, 1.67, 7.39, repro,
2011-07-17,2.49, -1.12, 3.95, 1.87, 1.66, 7.32, repro,
2011-07-18,3.27, 0.12, -0.79, 1.86, 1.67, 7.26, repro,
2011-07-19,2.64, 1.77, 5.28, 1.88, 1.71, 7.46, repro,
2011-07-20,4.83, 0.51, -4.22, 1.91, 1.72, 7.41, repro,
2011-07-21,5.19, 0.33, 0.78, 1.87, 1.71, 7.43, repro,
2011-07-22,5.35, 0.75, -3.50, 1.88, 1.66, 7.38, repro,
2011-07-23,3.54, 0.33, 5.15, 1.85, 1.64, 7.16, repro,
2011-07-24,4.78, -0.21, -3.15, 1.89, 1.72, 7.41, repro,
2011-07-25,7.17, 1.17, -0.91, 1.89, 1.68, 7.34, repro,
2011-07-26,4.10, 0.42, 0.24, 1.86, 1.66, 7.30, repro,
2011-07-27,3.87, 0.47, -2.31, 1.88, 1.70, 7.38, repro,
2011-07-28,5.53, 0.54, -1.16, 1.92, 1.73, 7.57, repro,
2011-07-29,6.68, 1.03, -11.53, 1.95, 1.74, 7.73, repro,
2011-07-30,4.71, 0.08, 2.05, 1.88, 1.68, 7.43, repro,
2011-07-31,6.05, 0.02, 0.49, 1.87, 1.66, 7.34, repro,
2011-08-01,3.31, 0.47, -9.60, 1.86, 1.65, 7.30, repro,
2011-08-02,5.47, 0.19, -1.45, 1.85, 1.64, 7.24, repro,
2011-08-03,5.10, -0.01, -4.74, 1.93, 1.77, 7.68, repro,
2011-08-04,4.10, 0.41, 3.17, 1.87, 1.65, 7.33, repro,
2011-08-05,5.26, -1.16, 5.22, 1.85, 1.65, 7.26, repro,
2011-08-06,4.75, -0.55, -3.47, 1.86, 1.67, 7.29, repro,
2011-08-07,5.83, -2.92, -10.66, 1.90, 1.67, 7.49, repro,
2011-08-08,4.61, 1.38, 7.59, 1.87, 1.66, 7.31, repro,
2011-08-09,1.30, 0.31, 0.79, 1.91, 1.68, 7.60, repro,
2011-08-10,5.40, 0.13, 1.28, 1.89, 1.70, 7.39, repro,
2011-08-11,4.35, 0.51, 5.18, 1.93, 1.75, 7.43, repro,
2011-08-12,3.06, 0.05, -2.89, 1.99, 1.80, 7.76, repro,
2011-08-13,4.93, -2.08, -8.75, 2.01, 1.83, 7.84, repro,
2011-08-14,5.69, 0.20, -1.94, 1.95, 1.78, 7.74, repro,
2011-08-15,4.20, -1.00, 7.13, 1.91, 1.73, 7.56, repro,
2011-08-16,4.98, 0.60, 7.00, 1.89, 1.69, 7.35, repro,
2011-08-17,6.58, -1.44, -2.53, 1.87, 1.70, 7.39, repro,
2011-08-18,5.87, -1.20, -4.17, 1.84, 1.63, 7.14, repro,
2011-08-19,3.84, -1.04, -1.74, 1.88, 1.67, 7.32, repro,
2011-08-20,4.93, 0.78, 2.27, 1.86, 1.65, 7.24, repro,
2011-08-21,5.55, -0.64, 4.29, 1.86, 1.66, 7.24, repro,
2011-08-22,6.08, -0.23, -1.63, 1.86, 1.68, 7.23, repro,
2011-08-23,4.51, -1.24, 5.27, 1.87, 1.74, 7.47, repro,
2011-08-24,5.45, -1.57, 4.47, 1.85, 1.66, 7.23, repro,
2011-08-25,4.71, -2.25, -2.05, 2.00, 1.80, 7.82, repro,
2011-08-26,5.44, -1.27, 11.27, 1.94, 1.73, 7.66, repro,
2011-08-27,6.56, -0.47, 8.92, 1.89, 1.70, 7.38, repro,
2011-08-28,5.73, -0.51, 5.00, 1.87, 1.70, 7.33, repro,
2011-08-29,5.02, -1.80, 1.17, 1.89, 1.75, 7.55, repro,
2011-08-30,5.39, -0.87, -0.58, 1.92, 1.74, 7.51, repro,
2011-08-31,4.62, 0.01, 4.89, 1.89, 1.68, 7.35, repro,
2011-09-01,5.81, -1.42, -3.25, 1.94, 1.65, 7.46, repro,
2011-09-02,5.00, -0.60, 5.68, 1.93, 1.65, 7.40, repro,
2011-09-03,4.45, -1.03, 0.89, 1.86, 1.65, 7.25, repro,
2011-09-04,4.85, -0.75, -8.11, 1.88, 1.70, 7.30, repro,
2011-09-05,3.07, -2.46, -4.09, 2.00, 1.77, 7.84, repro,
2011-09-06,5.58, 0.91, -1.93, 1.86, 1.64, 7.12, repro,
2011-09-07,6.65, -0.71, -5.90, 1.88, 1.69, 7.30, repro,
2011-09-08,5.34, 0.38, -6.36, 1.88, 1.69, 7.34, repro,
2011-09-09,5.77, -0.83, -6.20, 1.88, 1.72, 7.35, repro,
2011-09-10,5.73, -0.98, -5.32, 1.87, 1.69, 7.24, repro,
2011-09-11,4.81, -2.06, -1.19, 1.88, 1.71, 7.36, repro,
2011-09-12,5.96, -1.10, -3.69, 1.89, 1.69, 7.39, repro,
2011-09-13,5.80, -1.22, 0.59, 1.88, 1.68, 7.28, repro,
2011-09-14,4.83, -1.04, -4.45, 1.90, 1.72, 7.36, repro,
2011-09-15,6.82, -3.53, -5.23, 1.87, 1.67, 7.26, repro,
2011-09-16,7.43, -1.16, -10.50, 1.92, 1.69, 7.39, repro,
2011-09-17,4.36, 0.10, -0.09, 1.87, 1.64, 7.18, repro,
2011-09-18,5.89, -2.14, -6.91, 1.91, 1.72, 7.39, repro,
2011-09-19,6.49, -1.92, -0.08, 1.92, 1.78, 7.60, repro,
2011-09-20,4.91, -1.83, -5.59, 1.93, 1.68, 7.42, repro,
2011-09-21,5.17, -1.95, -3.28, 1.90, 1.73, 7.41, repro,
2011-09-22,4.68, -1.95, 0.01, 1.95, 1.68, 7.42, repro,
2011-09-23,5.04, -1.91, -1.58, 1.89, 1.69, 7.30, repro,
2011-09-24,5.19, -2.69, 2.32, 1.89, 1.68, 7.29, repro,
2011-09-25,5.64, -0.69, 10.38, 1.86, 1.65, 7.20, repro,
2011-09-26,4.91, -2.98, 1.91, 1.87, 1.64, 7.23, repro,
2011-09-27,5.36, -1.41, 11.64, 1.90, 1.68, 7.35, repro,
2011-09-28,4.18, -3.53, 5.61, 1.90, 1.75, 7.42, repro,
2011-09-29,4.69, -2.36, 3.49, 1.92, 1.77, 7.53, repro,
2011-09-30,5.26, -0.90, -1.21, 2.17, 1.96, 8.33, repro,
2011-10-01,3.53, -2.27, -8.52, 1.95, 1.78, 7.69, repro,
2011-10-02,4.01, -2.34, -5.41, 1.91, 1.73, 7.49, repro,
2011-10-03,5.26, -1.92, -3.02, 1.90, 1.73, 7.48, repro,
2011-10-04,6.15, -2.59, -2.54, 1.85, 1.69, 7.21, repro,
2011-10-05,4.89, -3.03, 1.13, 1.87, 1.70, 7.34, repro,
2011-10-06,3.97, -0.15, -4.16, 1.88, 1.71, 7.36, repro,
2011-10-07,4.34, -2.84, -0.15, 1.88, 1.73, 7.43, repro,
2011-10-08,6.49, -1.93, 8.44, 2.01, 1.85, 8.06, repro,
2011-10-09,4.94, -2.83, 2.54, 1.86, 1.72, 7.32, repro,
2011-10-10,5.79, -1.18, -0.40, 1.84, 1.69, 7.26, repro,
2011-10-11,4.36, -2.70, -2.86, 1.90, 1.77, 7.55, repro,
2011-10-12,5.20, -1.38, -1.05, 1.87, 1.71, 7.38, repro,
2011-10-13,5.02, -1.03, -0.10, 1.89, 1.76, 7.50, repro,
2011-10-14,5.15, -0.62, 9.03, 1.85, 1.69, 7.31, repro,
2011-10-15,4.68, -1.51, 2.75, 1.85, 1.69, 7.27, repro,
2011-10-16,4.47, -1.46, 0.97, 1.84, 1.64, 7.23, repro,
2011-10-17,5.41, -1.84, 5.32, 1.85, 1.66, 7.24, repro,
2011-10-18,5.76, -1.63, 2.41, 1.87, 1.71, 7.36, repro,
2011-10-19,5.73, -2.17, 1.99, 1.86, 1.69, 7.26, repro,
2011-10-20,5.65, -2.18, 4.90, 1.82, 1.64, 7.14, repro,
2011-10-21,5.19, -2.76, -0.84, 1.86, 1.65, 7.18, repro,
2011-10-22,5.93, -1.32, 2.10, 1.84, 1.64, 7.19, repro,
2011-10-23,6.04, -0.71, 3.41, 1.84, 1.65, 7.21, repro,
2011-10-24,6.43, -1.89, -1.96, 1.85, 1.66, 7.20, repro,
2011-10-25,3.85, -1.02, 1.52, 1.83, 1.64, 7.15, repro,
2011-10-26,4.27, -1.37, 1.24, 1.84, 1.65, 7.20, repro,
2011-10-27,5.50, -2.20, -4.75, 1.86, 1.67, 7.28, repro,
2011-10-28,6.01, -1.48, 3.68, 1.84, 1.66, 7.23, repro,
2011-10-29,5.96, -0.56, 3.70, 1.83, 1.65, 7.15, repro,
2011-10-30,6.23, -1.90, 3.67, 1.82, 1.63, 7.07, repro,
2011-10-31,5.57, -0.37, 3.81, 1.83, 1.64, 7.11, repro,
2011-11-01,4.69, -0.81, 3.63, 1.86, 1.68, 7.26, repro,
2011-11-02,5.68, -2.42, -5.36, 1.83, 1.64, 7.16, repro,
2011-11-03,6.69, -1.13, -1.38, 1.84, 1.68, 7.18, repro,
2011-11-04,6.41, -1.16, 3.46, 1.82, 1.65, 7.09, repro,
2011-11-05,6.59, 0.05, 6.68, 1.86, 1.65, 7.23, repro,
2011-11-06,6.09, -1.06, 6.59, 1.86, 1.65, 7.21, repro,
2011-11-07,4.56, -0.95, 0.83, 1.88, 1.69, 7.34, repro,
2011-11-08,6.08, 0.05, -1.44, 2.20, 2.05, 8.80, repro,
2011-11-09,6.16, -0.21, -5.41, 1.89, 1.71, 7.41, repro,
2011-11-10,7.33, -1.13, -9.41, 1.86, 1.66, 7.27, repro,
2011-11-11,7.08, -1.55, 0.58, 1.82, 1.63, 7.06, repro,
2011-11-12,6.33, -0.08, 2.85, 1.84, 1.64, 7.11, repro,
2011-11-13,6.27, -1.58, 4.85, 1.82, 1.65, 7.11, repro,
2011-11-14,6.00, -2.20, 4.19, 1.91, 1.72, 7.42, repro,
2011-11-15,6.53, -1.30, -3.91, 1.84, 1.66, 7.12, repro,
2011-11-16,6.63, -1.26, 3.35, 1.90, 1.70, 7.31, repro,
2011-11-17,7.63, -0.78, -1.48, 1.86, 1.66, 7.26, repro,
2011-11-18,5.34, -1.40, -7.02, 1.89, 1.70, 7.35, repro,
2011-11-19,5.69, -0.75, -1.56, 1.88, 1.70, 7.28, repro,
2011-11-20,6.73, -0.40, 0.04, 1.83, 1.67, 7.17, repro,
2011-11-21,7.26, 0.31, -6.82, 1.90, 1.69, 7.44, repro,
2011-11-22,7.35, -1.15, -5.06, 1.83, 1.66, 7.17, repro,
2011-11-23,7.64, -1.90, -13.00, 1.98, 1.73, 7.79, repro,
2011-11-24,6.74, -1.16, -7.09, 1.84, 1.67, 7.24, repro,
2011-11-25,6.66, -2.35, -7.42, 1.95, 1.74, 7.54, repro,
2011-11-26,7.26, -1.94, -7.84, 1.82, 1.65, 7.09, repro,
2011-11-27,7.31, -1.05, -8.62, 1.81, 1.65, 7.10, repro,
2011-11-28,6.82, -1.34, -3.96, 1.84, 1.70, 7.21, repro,
2011-11-29,7.60, -1.79, -5.74, 1.82, 1.65, 7.16, repro,
2011-11-30,6.85, -2.35, -8.27, 1.90, 1.70, 7.30, repro,
2011-12-01,5.56, -0.52, -6.48, 1.84, 1.66, 7.21, repro,
2011-12-02,7.27, -0.68, -5.65, 1.91, 1.68, 7.39, repro,
2011-12-03,6.46, 1.40, -14.22, 1.91, 1.69, 7.37, repro,
2011-12-04,6.55, -0.18, -7.29, 1.85, 1.67, 7.15, repro,
2011-12-05,8.32, 0.24, -15.58, 1.85, 1.69, 7.21, repro,
2011-12-06,7.55, -2.85, -13.07, 1.84, 1.67, 7.14, repro,
2011-12-07,5.81, -0.18, -7.91, 2.06, 1.89, 7.96, repro,
2011-12-08,7.95, -0.50, -7.59, 1.84, 1.68, 7.21, repro,
2011-12-09,6.46, 0.05, -4.01, 1.86, 1.68, 7.24, repro,
2011-12-10,6.17, -0.74, -15.73, 1.84, 1.68, 7.18, repro,
2011-12-11,5.79, -0.72, -10.70, 1.85, 1.69, 7.21, repro,
2011-12-12,5.62, -2.03, -7.57, 1.85, 1.69, 7.23, repro,
2011-12-13,5.22, -1.14, -8.17, 1.84, 1.68, 7.19, repro,
2011-12-14,4.97, -0.75, -0.73, 1.86, 1.68, 7.24, repro,
2011-12-15,6.89, -0.40, 0.55, 1.89, 1.73, 7.35, repro,
2011-12-16,5.81, 0.15, -13.40, 1.87, 1.73, 7.31, repro,